Time,TemperatureF,DewpointF,PressureIn,WindDirection,WindDirectionDegrees,WindSpeedMPH,WindSpeedGustMPH,Humidity,HourlyPrecipIn,Conditions,Clouds,dailyrainin,SoftwareType,DateUTC
2013-09-04 00:01:00,67.5,65.4,30.03,SW,225,0.0,0.0,93,0.00,,,0.00,VWS V14.01,2013-09-04 04:01:00,
2013-09-04 00:02:00,67.5,65.4,30.03,SW,225,0.0,0.0,93,0.00,,,0.00,VWS V14.01,2013-09-04 04:02:00,
2013-09-04 00:05:00,67.3,65.2,30.03,SW,225,0.0,0.0,93,0.00,,,0.00,VWS V14.01,2013-09-04 04:05:00,
2013-09-04 00:10:00,67.1,65.3,30.03,SW,225,0.0,0.0,94,0.00,,,0.00,VWS V14.01,2013-09-04 04:10:00,
2013-09-04 00:15:00,66.9,65.1,30.03,SW,225,0.0,0.0,94,0.00,,,0.00,VWS V14.01,2013-09-04 04:15:00,
2013-09-04 00:20:00,66.6,64.8,30.03,SW,225,0.0,0.0,94,0.00,,CLR,0.00,VWS V14.01,2013-09-04 04:20:00,
2013-09-04 00:25:00,66.6,65.1,30.03,SW,225,0.0,0.0,95,0.00,,CLR,0.00,VWS V14.01,2013-09-04 04:25:00,
2013-09-04 00:30:00,66.7,65.3,30.03,SW,225,0.0,0.0,95,0.00,,CLR,0.00,VWS V14.01,2013-09-04 04:30:00,
2013-09-04 00:35:00,66.7,65.3,30.06,SW,225,0.0,0.0,95,0.00,,CLR,0.00,VWS V14.01,2013-09-04 04:35:00,
2013-09-04 00:40:00,66.7,65.3,30.06,SW,225,0.0,0.0,95,0.00,,CLR,0.00,VWS V14.01,2013-09-04 04:40:00,
2013-09-04 00:45:00,66.6,65.1,30.06,SW,225,0.0,0.0,95,0.00,,CLR,0.00,VWS V14.01,2013-09-04 04:45:00,
2013-09-04 00:50:00,66.4,64.9,30.06,SW,225,0.0,0.0,95,0.00,,CLR,0.00,VWS V14.01,2013-09-04 04:50:00,
2013-09-04 00:55:00,66.4,64.9,30.06,SW,225,0.0,0.0,95,0.00,,CLR,0.00,VWS V14.01,2013-09-04 04:55:00,
2013-09-04 01:00:00,66.2,64.4,30.06,SW,225,0.0,0.0,94,0.00,,CLR,0.00,VWS V14.01,2013-09-04 05:00:00,
2013-09-04 01:05:00,66.4,64.6,30.06,SW,225,0.0,0.0,94,0.00,,CLR,0.00,VWS V14.01,2013-09-04 05:05:00,
2013-09-04 01:10:00,66.2,64.4,30.06,SW,225,0.0,0.0,94,0.00,,CLR,0.00,VWS V14.01,2013-09-04 05:10:00,
2013-09-04 01:15:00,66.0,64.2,30.06,SW,225,0.0,0.0,94,0.00,,CLR,0.00,VWS V14.01,2013-09-04 05:15:00,
2013-09-04 01:20:00,65.8,64.1,30.03,SW,225,0.0,0.0,94,0.00,,CLR,0.00,VWS V14.01,2013-09-04 05:20:00,
2013-09-04 01:25:00,65.8,64.4,30.03,SW,225,0.0,0.0,95,0.00,,CLR,0.00,VWS V14.01,2013-09-04 05:25:00,
2013-09-04 01:30:00,65.5,64.0,30.03,SW,225,0.0,0.0,95,0.00,,CLR,0.00,VWS V14.01,2013-09-04 05:30:00,
2013-09-04 01:35:00,65.3,63.8,30.03,SW,225,0.0,0.0,95,0.00,,CLR,0.00,VWS V14.01,2013-09-04 05:35:00,
2013-09-04 01:40:00,65.5,64.0,30.03,SW,225,0.0,0.0,95,0.00,,CLR,0.00,VWS V14.01,2013-09-04 05:40:00,
2013-09-04 01:45:00,65.5,63.7,30.03,SW,225,0.0,0.0,94,0.00,,CLR,0.00,VWS V14.01,2013-09-04 05:45:00,
2013-09-04 01:50:00,65.5,63.7,30.03,SW,225,0.0,0.0,94,0.00,,CLR,0.00,VWS V14.01,2013-09-04 05:50:00,
2013-09-04 01:55:00,65.5,63.4,30.03,SW,225,0.0,0.0,93,0.00,,CLR,0.00,VWS V14.01,2013-09-04 05:55:00,
2013-09-04 02:00:00,65.5,63.4,30.03,SW,225,0.0,0.0,93,0.00,,CLR,0.00,VWS V14.01,2013-09-04 06:00:00,
2013-09-04 02:05:00,65.5,63.4,30.03,SW,225,0.0,0.0,93,0.00,,CLR,0.00,VWS V14.01,2013-09-04 06:05:00,
2013-09-04 02:10:00,65.5,63.4,30.03,SW,225,0.0,0.0,93,0.00,,CLR,0.00,VWS V14.01,2013-09-04 06:10:00,
2013-09-04 02:15:00,65.3,62.9,30.03,SW,225,0.0,0.0,92,0.00,,CLR,0.00,VWS V14.01,2013-09-04 06:15:00,
2013-09-04 02:20:00,65.3,62.9,30.06,SW,225,0.0,0.0,92,0.00,,CLR,0.00,VWS V14.01,2013-09-04 06:20:00,
2013-09-04 02:25:00,65.1,62.7,30.06,SW,225,0.0,0.0,92,0.00,,CLR,0.00,VWS V14.01,2013-09-04 06:25:00,
2013-09-04 02:30:00,64.9,62.9,30.06,SW,225,0.0,0.0,93,0.00,,CLR,0.00,VWS V14.01,2013-09-04 06:30:00,
2013-09-04 02:35:00,64.8,62.7,30.06,SW,225,0.0,0.0,93,0.00,,CLR,0.00,VWS V14.01,2013-09-04 06:35:00,
2013-09-04 02:40:00,64.6,62.8,30.06,SW,225,0.0,0.0,94,0.00,,CLR,0.00,VWS V14.01,2013-09-04 06:40:00,
2013-09-04 02:45:00,64.4,62.6,30.06,SW,225,0.0,0.0,94,0.00,,CLR,0.00,VWS V14.01,2013-09-04 06:45:00,
2013-09-04 02:50:00,64.2,62.8,30.03,SW,225,0.0,0.0,95,0.00,,CLR,0.00,VWS V14.01,2013-09-04 06:50:00,
2013-09-04 02:55:00,64.0,62.6,30.03,SW,225,0.0,0.0,95,0.00,,CLR,0.00,VWS V14.01,2013-09-04 06:55:00,
2013-09-04 03:00:00,63.9,62.4,30.03,SW,225,0.0,0.0,95,0.00,,,0.00,VWS V14.01,2013-09-04 07:00:00,
2013-09-04 03:05:00,63.5,62.3,30.03,SW,225,0.0,0.0,96,0.00,,,0.00,VWS V14.01,2013-09-04 07:05:00,
2013-09-04 03:10:00,63.3,62.2,30.03,SW,225,0.0,0.0,96,0.00,,,0.00,VWS V14.01,2013-09-04 07:10:00,
2013-09-04 03:15:00,63.1,62.3,30.03,SW,225,0.0,0.0,97,0.00,,,0.00,VWS V14.01,2013-09-04 07:15:00,
2013-09-04 03:20:00,63.0,62.1,30.03,SW,225,0.0,0.0,97,0.00,,,0.00,VWS V14.01,2013-09-04 07:20:00,
2013-09-04 03:25:00,62.6,61.7,30.03,SW,225,0.0,0.0,97,0.00,,,0.00,VWS V14.01,2013-09-04 07:25:00,
2013-09-04 03:30:00,62.6,61.7,30.03,SW,225,0.0,0.0,97,0.00,,,0.00,VWS V14.01,2013-09-04 07:30:00,
2013-09-04 03:35:00,62.4,61.8,30.03,SW,225,0.0,0.0,98,0.00,,,0.00,VWS V14.01,2013-09-04 07:35:00,
2013-09-04 03:40:00,62.2,61.7,30.03,SW,225,0.0,0.0,98,0.00,,,0.00,VWS V14.01,2013-09-04 07:40:00,
2013-09-04 03:45:00,62.2,61.7,30.03,SW,225,0.0,0.0,98,0.00,,,0.00,VWS V14.01,2013-09-04 07:45:00,
2013-09-04 03:50:00,62.1,61.5,30.03,SW,225,0.0,0.0,98,0.00,,,0.00,VWS V14.01,2013-09-04 07:50:00,
2013-09-04 03:55:00,62.2,61.7,30.03,SW,225,0.0,0.0,98,0.00,,,0.00,VWS V14.01,2013-09-04 07:55:00,
2013-09-04 04:00:00,62.2,61.7,30.03,SW,225,0.0,0.0,98,0.00,,,0.00,VWS V14.01,2013-09-04 08:00:00,
2013-09-04 04:05:00,62.1,61.5,30.03,SW,225,0.0,0.0,98,0.00,,,0.00,VWS V14.01,2013-09-04 08:05:00,
2013-09-04 04:10:00,62.1,61.5,30.03,SW,225,0.0,0.0,98,0.00,,,0.00,VWS V14.01,2013-09-04 08:10:00,
2013-09-04 04:15:00,62.1,61.5,30.03,SW,225,0.0,0.0,98,0.00,,,0.00,VWS V14.01,2013-09-04 08:15:00,
2013-09-04 04:20:00,61.9,61.3,30.06,SW,225,0.0,0.0,98,0.00,,,0.00,VWS V14.01,2013-09-04 08:20:00,
2013-09-04 04:25:00,61.9,61.3,30.06,SW,225,0.0,0.0,98,0.00,,,0.00,VWS V14.01,2013-09-04 08:25:00,
2013-09-04 04:30:00,61.7,61.1,30.06,SW,225,0.0,0.0,98,0.00,,,0.00,VWS V14.01,2013-09-04 08:30:00,
2013-09-04 04:35:00,61.7,61.1,30.06,SW,225,0.0,0.0,98,0.00,,,0.00,VWS V14.01,2013-09-04 08:35:00,
2013-09-04 04:40:00,61.7,61.1,30.06,SW,225,0.0,0.0,98,0.00,,,0.00,VWS V14.01,2013-09-04 08:40:00,
2013-09-04 04:45:00,61.7,61.1,30.06,SW,225,0.0,0.0,98,0.00,,,0.00,VWS V14.01,2013-09-04 08:45:00,
2013-09-04 04:50:00,61.7,61.1,30.06,SW,225,0.0,0.0,98,0.00,,,0.00,VWS V14.01,2013-09-04 08:50:00,
2013-09-04 04:55:00,61.3,60.8,30.06,SW,225,0.0,0.0,98,0.00,,,0.00,VWS V14.01,2013-09-04 08:55:00,
2013-09-04 05:00:00,61.2,60.6,30.06,SW,225,0.0,0.0,98,0.00,,,0.00,VWS V14.01,2013-09-04 09:00:00,
2013-09-04 05:05:00,61.0,60.4,30.06,SW,225,0.0,0.0,98,0.00,,,0.00,VWS V14.01,2013-09-04 09:05:00,
2013-09-04 05:10:00,60.8,60.2,30.06,SW,225,0.0,0.0,98,0.00,,,0.00,VWS V14.01,2013-09-04 09:10:00,
2013-09-04 05:15:00,61.0,60.4,30.06,SW,225,0.0,0.0,98,0.00,,,0.00,VWS V14.01,2013-09-04 09:15:00,
2013-09-04 05:20:00,61.0,60.4,30.06,SW,225,0.0,0.0,98,0.00,,,0.00,VWS V14.01,2013-09-04 09:20:00,
2013-09-04 05:25:00,60.8,60.2,30.06,SW,225,0.0,0.0,98,0.00,,,0.00,VWS V14.01,2013-09-04 09:25:00,
2013-09-04 05:30:00,60.6,60.1,30.06,SW,225,0.0,0.0,98,0.00,,,0.00,VWS V14.01,2013-09-04 09:30:00,
2013-09-04 05:35:00,60.6,60.1,30.06,SW,225,0.0,0.0,98,0.00,,,0.00,VWS V14.01,2013-09-04 09:35:00,
2013-09-04 05:40:00,60.4,59.9,30.06,SW,225,0.0,0.0,98,0.00,,,0.00,VWS V14.01,2013-09-04 09:40:00,
2013-09-04 05:45:00,60.6,60.1,30.06,SW,225,0.0,0.0,98,0.00,,,0.00,VWS V14.01,2013-09-04 09:45:00,
2013-09-04 05:50:00,60.6,60.1,30.06,SW,225,0.0,0.0,98,0.00,,,0.00,VWS V14.01,2013-09-04 09:50:00,
2013-09-04 05:55:00,60.4,59.9,30.06,SW,225,0.0,0.0,98,0.00,,,0.00,VWS V14.01,2013-09-04 09:55:00,
2013-09-04 06:01:00,60.3,59.7,30.06,SW,225,0.0,0.0,98,0.00,,,0.00,VWS V14.01,2013-09-04 10:01:00,
2013-09-04 06:06:00,60.4,59.9,30.06,SW,225,0.0,0.0,98,0.00,,,0.00,VWS V14.01,2013-09-04 10:06:00,
2013-09-04 06:11:00,60.4,59.9,30.06,SW,225,0.0,0.0,98,0.00,,,0.00,VWS V14.01,2013-09-04 10:11:00,
2013-09-04 06:16:00,60.3,59.7,30.06,SW,225,0.0,0.0,98,0.00,,,0.00,VWS V14.01,2013-09-04 10:16:00,
2013-09-04 06:21:00,60.1,59.5,30.06,SW,225,0.0,0.0,98,0.00,,,0.00,VWS V14.01,2013-09-04 10:21:00,
2013-09-04 06:26:00,60.1,59.5,30.06,SW,225,0.0,0.0,98,0.00,,,0.00,VWS V14.01,2013-09-04 10:26:00,
2013-09-04 06:31:00,60.1,59.5,30.06,SW,225,0.0,0.0,98,0.00,,,0.00,VWS V14.01,2013-09-04 10:31:00,
2013-09-04 06:36:00,60.1,59.5,30.06,SW,225,0.0,0.0,98,0.00,,,0.00,VWS V14.01,2013-09-04 10:36:00,
2013-09-04 06:41:00,60.1,59.5,30.06,SW,225,0.0,0.0,98,0.00,,,0.00,VWS V14.01,2013-09-04 10:41:00,
2013-09-04 06:46:00,60.1,59.5,30.06,SW,225,0.0,0.0,98,0.00,,,0.00,VWS V14.01,2013-09-04 10:46:00,
2013-09-04 06:51:00,60.1,59.5,30.09,SW,225,0.0,0.0,98,0.00,,,0.00,VWS V14.01,2013-09-04 10:51:00,
2013-09-04 06:56:00,59.9,59.3,30.09,SW,225,0.0,0.0,98,0.00,,,0.00,VWS V14.01,2013-09-04 10:56:00,
2013-09-04 07:01:00,59.9,59.3,30.09,SW,225,0.0,0.0,98,0.00,,,0.00,VWS V14.01,2013-09-04 11:01:00,
2013-09-04 07:06:00,60.1,59.5,30.09,SW,225,0.0,0.0,98,0.00,,,0.00,VWS V14.01,2013-09-04 11:06:00,
2013-09-04 07:11:00,59.9,59.3,30.09,SW,225,0.0,0.0,98,0.00,,,0.00,VWS V14.01,2013-09-04 11:11:00,
2013-09-04 07:16:00,59.7,59.2,30.09,SW,225,0.0,0.0,98,0.00,,,0.00,VWS V14.01,2013-09-04 11:16:00,
2013-09-04 07:21:00,59.7,59.2,30.09,SW,225,0.0,0.0,98,0.00,,,0.00,VWS V14.01,2013-09-04 11:21:00,
2013-09-04 07:26:00,59.7,59.2,30.09,SW,225,0.0,0.0,98,0.00,,,0.00,VWS V14.01,2013-09-04 11:26:00,
2013-09-04 07:31:00,59.7,59.2,30.09,SW,225,0.0,0.0,98,0.00,,,0.00,VWS V14.01,2013-09-04 11:31:00,
2013-09-04 07:36:00,60.1,59.5,30.12,SW,225,0.0,0.0,98,0.00,,,0.00,VWS V14.01,2013-09-04 11:36:00,
2013-09-04 07:41:00,60.1,59.5,30.12,SW,225,0.0,0.0,98,0.00,,,0.00,VWS V14.01,2013-09-04 11:41:00,
2013-09-04 07:46:00,60.3,59.7,30.12,SW,225,0.0,0.0,98,0.00,,,0.00,VWS V14.01,2013-09-04 11:46:00,
2013-09-04 07:51:00,60.3,59.7,30.12,SW,225,0.0,0.0,98,0.00,,,0.00,VWS V14.01,2013-09-04 11:51:00,
2013-09-04 07:56:00,60.4,59.9,30.12,SW,225,0.0,0.0,98,0.00,,,0.00,VWS V14.01,2013-09-04 11:56:00,
2013-09-04 08:01:00,60.4,59.9,30.12,SW,225,0.0,0.0,98,0.00,,,0.00,VWS V14.01,2013-09-04 12:01:00,
2013-09-04 08:06:00,60.6,60.1,30.12,SW,225,0.0,0.0,98,0.00,,,0.00,VWS V14.01,2013-09-04 12:06:00,
2013-09-04 08:11:00,61.0,60.4,30.12,SW,225,0.0,0.0,98,0.00,,,0.00,VWS V14.01,2013-09-04 12:11:00,
2013-09-04 08:16:00,61.2,60.6,30.12,SW,225,0.0,0.0,98,0.00,,,0.00,VWS V14.01,2013-09-04 12:16:00,
2013-09-04 08:21:00,61.7,61.1,30.12,SW,225,0.0,0.0,98,0.00,,SCT065,0.00,VWS V14.01,2013-09-04 12:21:00,
2013-09-04 08:26:00,61.9,61.3,30.12,SW,225,0.0,0.0,98,0.00,,SCT065,0.00,VWS V14.01,2013-09-04 12:26:00,
2013-09-04 08:31:00,62.2,61.7,30.12,SW,225,0.0,0.0,98,0.00,,SCT065,0.00,VWS V14.01,2013-09-04 12:31:00,
2013-09-04 08:36:00,62.8,62.2,30.12,SW,225,0.0,0.0,98,0.00,,SCT065,0.00,VWS V14.01,2013-09-04 12:36:00,
2013-09-04 08:41:00,63.1,62.6,30.12,SW,225,0.0,0.0,98,0.00,,SCT065,0.00,VWS V14.01,2013-09-04 12:41:00,
2013-09-04 08:46:00,63.3,62.8,30.12,SW,225,0.0,0.0,98,0.00,,SCT065,0.00,VWS V14.01,2013-09-04 12:46:00,
2013-09-04 08:51:00,63.5,62.9,30.12,SW,225,0.0,0.0,98,0.00,,SCT065,0.00,VWS V14.01,2013-09-04 12:51:00,
2013-09-04 08:56:00,64.0,63.5,30.12,SW,225,0.0,0.0,98,0.00,,SCT065,0.00,VWS V14.01,2013-09-04 12:56:00,
2013-09-04 09:01:00,64.4,63.8,30.12,SW,225,0.0,0.0,98,0.00,,CLR,0.00,VWS V14.01,2013-09-04 13:01:00,
2013-09-04 09:06:00,64.4,63.8,30.12,SW,225,0.0,0.0,98,0.00,,CLR,0.00,VWS V14.01,2013-09-04 13:06:00,
2013-09-04 09:11:00,64.6,64.0,30.12,SW,225,0.0,0.0,98,0.00,,CLR,0.00,VWS V14.01,2013-09-04 13:11:00,
2013-09-04 09:16:00,65.1,64.5,30.12,SW,225,0.0,0.0,98,0.00,,CLR,0.00,VWS V14.01,2013-09-04 13:16:00,
2013-09-04 09:21:00,65.5,64.9,30.15,SW,225,0.0,0.0,98,0.00,,CLR,0.00,VWS V14.01,2013-09-04 13:21:00,
2013-09-04 09:26:00,66.0,65.4,30.15,SW,225,0.0,0.0,98,0.00,,CLR,0.00,VWS V14.01,2013-09-04 13:26:00,
2013-09-04 09:31:00,66.2,65.6,30.15,SW,225,0.0,0.0,98,0.00,,CLR,0.00,VWS V14.01,2013-09-04 13:31:00,
2013-09-04 09:36:00,66.7,66.2,30.15,SW,225,0.0,0.0,98,0.00,,CLR,0.00,VWS V14.01,2013-09-04 13:36:00,
2013-09-04 09:41:00,67.3,66.7,30.15,SW,225,0.0,0.0,98,0.00,,CLR,0.00,VWS V14.01,2013-09-04 13:41:00,
2013-09-04 09:46:00,67.6,67.1,30.15,SW,225,0.0,0.0,98,0.00,,CLR,0.00,VWS V14.01,2013-09-04 13:46:00,
2013-09-04 09:51:00,68.4,67.2,30.15,SW,225,0.0,0.0,96,0.00,,CLR,0.00,VWS V14.01,2013-09-04 13:51:00,
2013-09-04 09:56:00,69.3,66.8,30.15,SW,225,0.0,0.0,92,0.00,,CLR,0.00,VWS V14.01,2013-09-04 13:56:00,
2013-09-04 10:01:00,69.6,66.2,30.15,SW,225,0.0,0.0,89,0.00,,CLR,0.00,VWS V14.01,2013-09-04 14:01:00,
2013-09-04 10:06:00,70.5,64.1,30.15,SW,225,0.0,0.0,80,0.00,,CLR,0.00,VWS V14.01,2013-09-04 14:06:00,
2013-09-04 10:11:00,70.9,63.3,30.15,SW,225,0.0,0.0,77,0.00,,CLR,0.00,VWS V14.01,2013-09-04 14:11:00,
2013-09-04 10:16:00,71.8,63.1,30.15,SW,225,0.0,0.0,74,0.00,,CLR,0.00,VWS V14.01,2013-09-04 14:16:00,
2013-09-04 10:21:00,72.5,62.2,30.15,SW,225,0.0,0.0,70,0.00,,CLR,0.00,VWS V14.01,2013-09-04 14:21:00,
2013-09-04 10:26:00,72.9,61.7,30.15,SW,225,0.0,2.7,68,0.00,,CLR,0.00,VWS V14.01,2013-09-04 14:26:00,
2013-09-04 10:31:00,73.0,60.6,30.15,SW,225,3.6,3.6,65,0.00,,CLR,0.00,VWS V14.01,2013-09-04 14:31:00,
2013-09-04 10:36:00,73.4,60.9,30.15,SW,225,0.0,3.6,65,0.00,,CLR,0.00,VWS V14.01,2013-09-04 14:36:00,
2013-09-04 10:41:00,73.8,60.4,30.15,SW,225,2.2,2.2,63,0.00,,CLR,0.00,VWS V14.01,2013-09-04 14:41:00,
2013-09-04 10:46:00,73.9,60.6,30.15,SW,225,2.7,2.7,63,0.00,,CLR,0.00,VWS V14.01,2013-09-04 14:46:00,
2013-09-04 10:51:00,74.5,61.1,30.15,SW,225,0.0,3.6,63,0.00,,CLR,0.00,VWS V14.01,2013-09-04 14:51:00,
2013-09-04 10:56:00,74.8,59.6,30.15,SW,225,3.1,3.1,59,0.00,,CLR,0.00,VWS V14.01,2013-09-04 14:56:00,
2013-09-04 11:01:00,75.0,58.3,30.15,SW,225,0.0,0.0,56,0.00,,CLR,0.00,VWS V14.01,2013-09-04 15:01:00,
2013-09-04 11:06:00,75.4,56.0,30.15,SW,225,0.0,0.0,51,0.00,,CLR,0.00,VWS V14.01,2013-09-04 15:06:00,
2013-09-04 11:11:00,76.1,56.1,30.15,SW,225,0.0,0.0,50,0.00,,CLR,0.00,VWS V14.01,2013-09-04 15:11:00,
2013-09-04 11:16:00,76.3,56.8,30.15,SW,225,0.0,0.0,51,0.00,,CLR,0.00,VWS V14.01,2013-09-04 15:16:00,
2013-09-04 11:21:00,77.4,56.7,30.15,SW,225,0.0,0.0,49,0.00,,CLR,0.00,VWS V14.01,2013-09-04 15:21:00,
2013-09-04 11:26:00,77.5,53.9,30.15,SW,225,2.2,2.2,44,0.00,,CLR,0.00,VWS V14.01,2013-09-04 15:26:00,
2013-09-04 11:31:00,77.4,53.1,30.15,SW,225,0.0,0.0,43,0.00,,CLR,0.00,VWS V14.01,2013-09-04 15:31:00,
2013-09-04 11:36:00,77.4,55.0,30.15,SW,225,0.0,0.0,46,0.00,,CLR,0.00,VWS V14.01,2013-09-04 15:36:00,
2013-09-04 11:41:00,77.9,53.6,30.15,SW,225,2.7,2.7,43,0.00,,CLR,0.00,VWS V14.01,2013-09-04 15:41:00,
2013-09-04 11:46:00,79.2,54.8,30.15,SW,225,2.2,2.7,43,0.00,,CLR,0.00,VWS V14.01,2013-09-04 15:46:00,
2013-09-04 11:51:00,78.6,51.6,30.15,SW,225,2.2,2.2,39,0.00,,CLR,0.00,VWS V14.01,2013-09-04 15:51:00,
2013-09-04 11:56:00,79.9,53.4,30.15,SW,225,0.0,0.0,40,0.00,,CLR,0.00,VWS V14.01,2013-09-04 15:56:00,
2013-09-04 12:01:00,81.0,53.7,30.15,SW,225,0.0,2.2,39,0.00,,CLR,0.00,VWS V14.01,2013-09-04 16:01:00,
2013-09-04 12:06:00,81.9,53.8,30.15,SW,225,0.0,0.0,38,0.00,,CLR,0.00,VWS V14.01,2013-09-04 16:06:00,
2013-09-04 12:11:00,82.8,52.3,30.15,SW,225,0.0,0.0,35,0.00,,CLR,0.00,VWS V14.01,2013-09-04 16:11:00,
2013-09-04 12:16:00,83.5,53.8,30.15,SW,225,0.0,0.0,36,0.00,,CLR,0.00,VWS V14.01,2013-09-04 16:16:00,
2013-09-04 12:21:00,83.8,52.5,30.15,SW,225,0.0,0.0,34,0.00,,CLR,0.00,VWS V14.01,2013-09-04 16:21:00,
2013-09-04 12:26:00,82.0,52.5,30.15,SW,225,2.2,2.2,36,0.00,,CLR,0.00,VWS V14.01,2013-09-04 16:26:00,
2013-09-04 12:31:00,82.2,51.9,30.15,SW,225,0.0,0.0,35,0.00,,CLR,0.00,VWS V14.01,2013-09-04 16:31:00,
2013-09-04 12:36:00,82.2,52.6,30.15,SW,225,2.2,2.2,36,0.00,,CLR,0.00,VWS V14.01,2013-09-04 16:36:00,
2013-09-04 12:41:00,82.8,52.3,30.15,SW,225,0.0,0.0,35,0.00,,CLR,0.00,VWS V14.01,2013-09-04 16:41:00,
2013-09-04 12:46:00,83.1,54.2,30.15,SW,225,0.0,0.0,37,0.00,,CLR,0.00,VWS V14.01,2013-09-04 16:46:00,
2013-09-04 12:51:00,82.4,53.5,30.15,SW,225,2.2,2.2,37,0.00,,CLR,0.00,VWS V14.01,2013-09-04 16:51:00,
2013-09-04 12:56:00,82.6,53.7,30.15,SW,225,0.0,2.2,37,0.00,,CLR,0.00,VWS V14.01,2013-09-04 16:56:00,
2013-09-04 13:01:00,82.6,51.4,30.15,SW,225,2.7,2.7,34,0.00,,CLR,0.00,VWS V14.01,2013-09-04 17:01:00,
2013-09-04 13:06:00,83.5,53.8,30.15,SW,225,2.2,2.2,36,0.00,,CLR,0.00,VWS V14.01,2013-09-04 17:06:00,
2013-09-04 13:11:00,83.7,54.7,30.15,SW,225,0.0,0.0,37,0.00,,CLR,0.00,VWS V14.01,2013-09-04 17:11:00,
2013-09-04 13:16:00,84.4,52.2,30.15,SW,225,2.2,2.2,33,0.00,,CLR,0.00,VWS V14.01,2013-09-04 17:16:00,
2013-09-04 13:21:00,84.9,53.5,30.15,SW,225,0.0,0.0,34,0.00,,CLR,0.00,VWS V14.01,2013-09-04 17:21:00,
2013-09-04 13:26:00,83.8,53.3,30.15,SW,225,2.2,2.2,35,0.00,,CLR,0.00,VWS V14.01,2013-09-04 17:26:00,
2013-09-04 13:31:00,84.4,53.0,30.15,SW,225,0.0,2.2,34,0.00,,CLR,0.00,VWS V14.01,2013-09-04 17:31:00,
2013-09-04 13:36:00,84.7,51.6,30.12,SW,225,0.0,0.0,32,0.00,,CLR,0.00,VWS V14.01,2013-09-04 17:36:00,
2013-09-04 13:41:00,85.8,54.2,30.12,SW,225,2.7,2.7,34,0.00,,CLR,0.00,VWS V14.01,2013-09-04 17:41:00,
2013-09-04 13:46:00,85.6,53.3,30.12,SW,225,4.0,4.0,33,0.00,,CLR,0.00,VWS V14.01,2013-09-04 17:46:00,
2013-09-04 13:51:00,84.6,51.5,30.12,SW,225,2.7,2.7,32,0.00,,CLR,0.00,VWS V14.01,2013-09-04 17:51:00,
2013-09-04 13:56:00,86.0,52.7,30.12,SW,225,2.2,2.7,32,0.00,,CLR,0.00,VWS V14.01,2013-09-04 17:56:00,
2013-09-04 14:01:00,85.3,52.1,30.12,SW,225,2.2,2.7,32,0.00,,CLR,0.00,VWS V14.01,2013-09-04 18:01:00,
2013-09-04 14:06:00,85.8,52.6,30.15,SW,225,0.0,2.7,32,0.00,,CLR,0.00,VWS V14.01,2013-09-04 18:06:00,
2013-09-04 14:11:00,85.8,51.7,30.15,SW,225,0.0,0.0,31,0.00,,CLR,0.00,VWS V14.01,2013-09-04 18:11:00,
2013-09-04 14:16:00,84.6,52.3,30.15,SW,225,4.0,4.0,33,0.00,,CLR,0.00,VWS V14.01,2013-09-04 18:16:00,
2013-09-04 14:21:00,84.2,51.2,30.12,SW,225,3.1,3.1,32,0.00,,CLR,0.00,VWS V14.01,2013-09-04 18:21:00,
2013-09-04 14:26:00,84.7,51.6,30.12,SW,225,0.0,0.0,32,0.00,,CLR,0.00,VWS V14.01,2013-09-04 18:26:00,
2013-09-04 14:31:00,84.9,50.1,30.12,SW,225,2.2,2.2,30,0.00,,CLR,0.00,VWS V14.01,2013-09-04 18:31:00,
2013-09-04 14:36:00,83.8,50.0,30.12,SW,225,0.0,0.0,31,0.00,,CLR,0.00,VWS V14.01,2013-09-04 18:36:00,
2013-09-04 14:41:00,86.0,51.0,30.12,SW,225,0.0,0.0,30,0.00,,CLR,0.00,VWS V14.01,2013-09-04 18:41:00,
2013-09-04 14:46:00,87.4,52.2,30.12,SW,225,0.0,0.0,30,0.00,,CLR,0.00,VWS V14.01,2013-09-04 18:46:00,
2013-09-04 14:51:00,87.6,54.2,30.12,SW,225,2.2,2.2,32,0.00,,CLR,0.00,VWS V14.01,2013-09-04 18:51:00,
2013-09-04 14:56:00,87.4,52.2,30.12,SW,225,4.0,4.0,30,0.00,,CLR,0.00,VWS V14.01,2013-09-04 18:56:00,
2013-09-04 15:01:00,86.7,50.7,30.12,SW,225,4.0,4.0,29,0.00,,CLR,0.00,VWS V14.01,2013-09-04 19:01:00,
2013-09-04 15:06:00,85.5,51.4,30.12,SW,225,2.7,2.7,31,0.00,,CLR,0.00,VWS V14.01,2013-09-04 19:06:00,
2013-09-04 15:11:00,86.7,52.5,30.12,SW,225,0.0,0.0,31,0.00,,CLR,0.00,VWS V14.01,2013-09-04 19:11:00,
2013-09-04 15:16:00,86.9,51.8,30.12,SW,225,3.6,4.9,30,0.00,,CLR,0.00,VWS V14.01,2013-09-04 19:16:00,
2013-09-04 15:21:00,86.2,53.7,30.12,SW,225,3.6,3.6,33,0.00,,CLR,0.00,VWS V14.01,2013-09-04 19:21:00,
2013-09-04 15:26:00,85.8,54.2,30.12,SW,225,2.2,2.2,34,0.00,,CLR,0.00,VWS V14.01,2013-09-04 19:26:00,
2013-09-04 15:31:00,85.8,52.6,30.12,SW,225,0.0,0.0,32,0.00,,CLR,0.00,VWS V14.01,2013-09-04 19:31:00,
2013-09-04 15:36:00,86.0,53.6,30.09,SW,225,4.0,4.0,33,0.00,,CLR,0.00,VWS V14.01,2013-09-04 19:36:00,
2013-09-04 15:41:00,84.4,53.0,30.09,SW,225,0.0,2.2,34,0.00,,CLR,0.00,VWS V14.01,2013-09-04 19:41:00,
2013-09-04 15:46:00,84.0,55.0,30.09,SW,225,2.7,2.7,37,0.00,,CLR,0.00,VWS V14.01,2013-09-04 19:46:00,
2013-09-04 15:51:00,83.7,55.4,30.09,SW,225,0.0,0.0,38,0.00,,CLR,0.00,VWS V14.01,2013-09-04 19:51:00,
2013-09-04 15:56:00,83.7,53.9,30.09,SW,225,3.1,3.1,36,0.00,,CLR,0.00,VWS V14.01,2013-09-04 19:56:00,
2013-09-04 16:01:00,83.5,55.9,30.09,SW,225,2.7,4.0,39,0.00,,CLR,0.00,VWS V14.01,2013-09-04 20:01:00,
2013-09-04 16:06:00,83.5,55.9,30.09,SW,225,0.0,2.7,39,0.00,,CLR,0.00,VWS V14.01,2013-09-04 20:06:00,
2013-09-04 16:11:00,83.5,55.2,30.09,SW,225,0.0,0.0,38,0.00,,CLR,0.00,VWS V14.01,2013-09-04 20:11:00,
2013-09-04 16:16:00,83.8,56.3,30.09,SW,225,2.2,2.2,39,0.00,,CLR,0.00,VWS V14.01,2013-09-04 20:16:00,
2013-09-04 16:21:00,83.8,57.0,30.09,SW,225,2.2,3.1,40,0.00,,CLR,0.00,VWS V14.01,2013-09-04 20:21:00,
2013-09-04 16:26:00,84.0,57.1,30.09,SW,225,0.0,3.6,40,0.00,,CLR,0.00,VWS V14.01,2013-09-04 20:26:00,
2013-09-04 16:31:00,83.8,57.0,30.09,SW,225,2.7,3.1,40,0.00,,CLR,0.00,VWS V14.01,2013-09-04 20:31:00,
2013-09-04 16:36:00,83.8,56.3,30.09,SW,225,0.0,2.7,39,0.00,,CLR,0.00,VWS V14.01,2013-09-04 20:36:00,
2013-09-04 16:41:00,84.0,56.4,30.09,SW,225,2.7,4.0,39,0.00,,SCT038,0.00,VWS V14.01,2013-09-04 20:41:00,
2013-09-04 16:46:00,84.2,55.9,30.09,SW,225,2.7,2.7,38,0.00,,SCT038,0.00,VWS V14.01,2013-09-04 20:46:00,
2013-09-04 16:51:00,84.0,57.1,30.09,SW,225,2.7,2.7,40,0.00,,SCT038,0.00,VWS V14.01,2013-09-04 20:51:00,
2013-09-04 16:56:00,83.7,55.4,30.09,SW,225,2.7,2.7,38,0.00,,SCT038,0.00,VWS V14.01,2013-09-04 20:56:00,
2013-09-04 17:01:00,83.5,56.6,30.09,SW,225,0.0,0.0,40,0.00,,SCT038,0.00,VWS V14.01,2013-09-04 21:01:00,
2013-09-04 17:06:00,83.7,58.2,30.09,SW,225,2.7,2.7,42,0.00,,SCT038,0.00,VWS V14.01,2013-09-04 21:06:00,
2013-09-04 17:11:00,83.5,56.6,30.09,SW,225,2.2,2.2,40,0.00,,SCT038,0.00,VWS V14.01,2013-09-04 21:11:00,
2013-09-04 17:16:00,83.1,56.3,30.09,SW,225,2.2,2.7,40,0.00,,SCT038,0.00,VWS V14.01,2013-09-04 21:16:00,
2013-09-04 17:21:00,83.3,57.2,30.09,SW,225,0.0,0.0,41,0.00,,CLR,0.00,VWS V14.01,2013-09-04 21:21:00,
2013-09-04 17:26:00,82.8,58.7,30.09,SW,225,2.2,3.6,44,0.00,,CLR,0.00,VWS V14.01,2013-09-04 21:26:00,
2013-09-04 17:31:00,82.6,57.2,30.09,SW,225,2.2,2.2,42,0.00,,CLR,0.00,VWS V14.01,2013-09-04 21:31:00,
2013-09-04 17:36:00,82.4,56.4,30.06,SW,225,0.0,2.2,41,0.00,,CLR,0.00,VWS V14.01,2013-09-04 21:36:00,
2013-09-04 17:42:00,82.4,55.7,30.06,SW,225,0.0,0.0,40,0.00,,CLR,0.00,VWS V14.01,2013-09-04 21:42:00,
2013-09-04 17:47:00,82.4,57.0,30.06,SW,225,0.0,0.0,42,0.00,,CLR,0.00,VWS V14.01,2013-09-04 21:47:00,
2013-09-04 17:52:00,82.2,56.9,30.09,SW,225,0.0,0.0,42,0.00,,CLR,0.00,VWS V14.01,2013-09-04 21:52:00,
2013-09-04 17:57:00,82.0,57.4,30.09,SW,225,0.0,2.7,43,0.00,,CLR,0.00,VWS V14.01,2013-09-04 21:57:00,
2013-09-04 18:02:00,81.9,57.2,30.09,SW,225,0.0,2.2,43,0.00,,SCT040,0.00,VWS V14.01,2013-09-04 22:02:00,
2013-09-04 18:07:00,81.9,57.2,30.06,SW,225,2.2,2.7,43,0.00,,SCT040,0.00,VWS V14.01,2013-09-04 22:07:00,
2013-09-04 18:12:00,82.0,57.4,30.06,SW,225,0.0,0.0,43,0.00,,SCT040,0.00,VWS V14.01,2013-09-04 22:12:00,
2013-09-04 18:17:00,81.7,58.3,30.06,SW,225,2.2,2.2,45,0.00,,SCT040,0.00,VWS V14.01,2013-09-04 22:17:00,
2013-09-04 18:22:00,81.5,57.5,30.09,SW,225,0.0,0.0,44,0.00,,SCT038,0.00,VWS V14.01,2013-09-04 22:22:00,
2013-09-04 18:27:00,81.5,57.5,30.09,SW,225,0.0,0.0,44,0.00,,SCT038,0.00,VWS V14.01,2013-09-04 22:27:00,
2013-09-04 18:32:00,81.5,57.5,30.09,SW,225,0.0,0.0,44,0.00,,SCT038,0.00,VWS V14.01,2013-09-04 22:32:00,
2013-09-04 18:37:00,81.1,57.2,30.09,SW,225,0.0,2.7,44,0.00,,SCT038,0.00,VWS V14.01,2013-09-04 22:37:00,
2013-09-04 18:42:00,81.0,57.6,30.09,SW,225,0.0,2.2,45,0.00,,CLR,0.00,VWS V14.01,2013-09-04 22:42:00,
2013-09-04 18:47:00,80.6,57.3,30.09,SW,225,0.0,0.0,45,0.00,,CLR,0.00,VWS V14.01,2013-09-04 22:47:00,
2013-09-04 18:52:00,80.4,59.5,30.09,SW,225,0.0,0.0,49,0.00,,CLR,0.00,VWS V14.01,2013-09-04 22:52:00,
2013-09-04 18:57:00,79.9,61.8,30.09,SW,225,0.0,0.0,54,0.00,,CLR,0.00,VWS V14.01,2013-09-04 22:57:00,
2013-09-04 19:02:00,79.3,61.8,30.09,SW,225,0.0,0.0,55,0.00,,CLR,0.00,VWS V14.01,2013-09-04 23:02:00,
2013-09-04 19:07:00,78.6,63.1,30.09,SW,225,0.0,0.0,59,0.00,,CLR,0.00,VWS V14.01,2013-09-04 23:07:00,
2013-09-04 19:12:00,78.1,62.1,30.09,SW,225,0.0,0.0,58,0.00,,CLR,0.00,VWS V14.01,2013-09-04 23:12:00,
2013-09-04 19:17:00,77.7,63.2,30.09,SW,225,0.0,0.0,61,0.00,,CLR,0.00,VWS V14.01,2013-09-04 23:17:00,
2013-09-04 19:22:00,77.2,64.1,30.09,SW,225,0.0,0.0,64,0.00,,SCT043,0.00,VWS V14.01,2013-09-04 23:22:00,
2013-09-04 19:27:00,76.5,64.3,30.09,SW,225,0.0,0.0,66,0.00,,SCT043,0.00,VWS V14.01,2013-09-04 23:27:00,
2013-09-04 19:32:00,75.9,64.6,30.09,SW,225,0.0,0.0,68,0.00,,SCT043,0.00,VWS V14.01,2013-09-04 23:32:00,
2013-09-04 19:38:00,75.4,64.1,30.09,SW,225,0.0,0.0,68,0.00,,SCT043,0.00,VWS V14.01,2013-09-04 23:38:00,
2013-09-04 19:43:00,75.0,64.6,30.09,SW,225,0.0,0.0,70,0.00,,SCT045,0.00,VWS V14.01,2013-09-04 23:43:00,
2013-09-04 19:48:00,74.7,64.6,30.09,SW,225,0.0,0.0,71,0.00,,SCT045,0.00,VWS V14.01,2013-09-04 23:48:00,
2013-09-04 19:53:00,74.3,64.3,30.09,SW,225,0.0,0.0,71,0.00,,SCT045,0.00,VWS V14.01,2013-09-04 23:53:00,
2013-09-04 19:58:00,73.9,65.9,30.09,SW,225,0.0,0.0,76,0.00,,SCT045,0.00,VWS V14.01,2013-09-04 23:58:00,
2013-09-04 20:03:00,73.4,66.1,30.09,SW,225,0.0,0.0,78,0.00,,CLR,0.00,VWS V14.01,2013-09-05 00:03:00,
2013-09-04 20:08:00,73.0,66.9,30.09,SW,225,0.0,0.0,81,0.00,,CLR,0.00,VWS V14.01,2013-09-05 00:08:00,
2013-09-04 20:13:00,72.7,67.2,30.09,SW,225,0.0,0.0,83,0.00,,CLR,0.00,VWS V14.01,2013-09-05 00:13:00,
2013-09-04 20:18:00,72.5,67.1,30.09,SW,225,0.0,0.0,83,0.00,,CLR,0.00,VWS V14.01,2013-09-05 00:18:00,
2013-09-04 20:23:00,72.1,67.4,30.09,SW,225,0.0,0.0,85,0.00,,BKN038,0.00,VWS V14.01,2013-09-05 00:23:00,
2013-09-04 20:28:00,71.8,67.4,30.09,SW,225,0.0,0.0,86,0.00,,BKN038,0.00,VWS V14.01,2013-09-05 00:28:00,
2013-09-04 20:33:00,71.6,67.9,30.09,SW,225,0.0,0.0,88,0.00,,BKN038,0.00,VWS V14.01,2013-09-05 00:33:00,
2013-09-04 20:38:00,71.4,68.3,30.09,SW,225,0.0,0.0,90,0.00,,BKN038,0.00,VWS V14.01,2013-09-05 00:38:00,
2013-09-04 20:43:00,71.2,68.5,30.09,SW,225,0.0,0.0,91,0.00,,BKN045,0.00,VWS V14.01,2013-09-05 00:43:00,
2013-09-04 20:48:00,71.2,68.8,30.12,SW,225,0.0,0.0,92,0.00,,BKN045,0.00,VWS V14.01,2013-09-05 00:48:00,
2013-09-04 20:53:00,71.1,68.9,30.12,SW,225,0.0,0.0,93,0.00,,BKN045,0.00,VWS V14.01,2013-09-05 00:53:00,
2013-09-04 20:58:00,70.9,69.1,30.12,SW,225,0.0,0.0,94,0.00,,BKN045,0.00,VWS V14.01,2013-09-05 00:58:00,
2013-09-04 21:03:00,70.9,69.1,30.12,SW,225,0.0,0.0,94,0.00,,BKN050,0.00,VWS V14.01,2013-09-05 01:03:00,
2013-09-04 21:08:00,70.7,69.2,30.12,SW,225,0.0,0.0,95,0.00,,BKN050,0.00,VWS V14.01,2013-09-05 01:08:00,
2013-09-04 21:13:00,70.5,69.0,30.12,SW,225,0.0,0.0,95,0.00,,BKN050,0.00,VWS V14.01,2013-09-05 01:13:00,
2013-09-04 21:18:00,70.3,68.8,30.12,SW,225,0.0,0.0,95,0.00,,BKN050,0.00,VWS V14.01,2013-09-05 01:18:00,
2013-09-04 21:24:00,70.2,68.7,30.12,SW,225,0.0,0.0,95,0.00,,BKN050,0.00,VWS V14.01,2013-09-05 01:24:00,
2013-09-04 21:29:00,70.2,69.0,30.12,SW,225,0.0,0.0,96,0.00,,BKN050,0.00,VWS V14.01,2013-09-05 01:29:00,
2013-09-04 21:34:00,70.2,69.0,30.12,SW,225,0.0,0.0,96,0.00,,BKN050,0.00,VWS V14.01,2013-09-05 01:34:00,
2013-09-04 21:39:00,70.2,69.0,30.12,SW,225,0.0,0.0,96,0.00,,BKN050,0.00,VWS V14.01,2013-09-05 01:39:00,
2013-09-04 21:44:00,70.2,69.0,30.12,SW,225,0.0,0.0,96,0.00,,SCT046,0.00,VWS V14.01,2013-09-05 01:44:00,
2013-09-04 21:49:00,70.3,69.2,30.12,SW,225,0.0,0.0,96,0.00,,SCT046,0.00,VWS V14.01,2013-09-05 01:49:00,
2013-09-04 21:54:00,70.3,69.2,30.12,SW,225,0.0,0.0,96,0.00,,SCT046,0.00,VWS V14.01,2013-09-05 01:54:00,
2013-09-04 21:59:00,70.3,69.2,30.12,SW,225,0.0,0.0,96,0.00,,SCT046,0.00,VWS V14.01,2013-09-05 01:59:00,
2013-09-04 22:04:00,70.3,69.2,30.12,SW,225,0.0,0.0,96,0.00,,BKN040,0.00,VWS V14.01,2013-09-05 02:04:00,
2013-09-04 22:09:00,70.5,69.3,30.12,SW,225,0.0,0.0,96,0.00,,BKN040,0.00,VWS V14.01,2013-09-05 02:09:00,
2013-09-04 22:14:00,70.5,69.6,30.12,SW,225,0.0,0.0,97,0.00,,BKN040,0.00,VWS V14.01,2013-09-05 02:14:00,
2013-09-04 22:19:00,70.5,69.6,30.15,SW,225,0.0,0.0,97,0.00,,BKN040,0.00,VWS V14.01,2013-09-05 02:19:00,
2013-09-04 22:24:00,70.5,69.6,30.15,SW,225,0.0,0.0,97,0.00,,OVC065,0.00,VWS V14.01,2013-09-05 02:24:00,
2013-09-04 22:29:00,70.3,69.4,30.15,SW,225,0.0,0.0,97,0.00,,OVC065,0.00,VWS V14.01,2013-09-05 02:29:00,
2013-09-04 22:34:00,70.3,69.4,30.15,SW,225,0.0,0.0,97,0.00,,OVC065,0.00,VWS V14.01,2013-09-05 02:34:00,
2013-09-04 22:39:00,70.3,69.4,30.15,SW,225,0.0,0.0,97,0.00,,OVC065,0.00,VWS V14.01,2013-09-05 02:39:00,
2013-09-04 22:44:00,70.2,69.3,30.15,SW,225,0.0,0.0,97,0.00,,BKN040,0.00,VWS V14.01,2013-09-05 02:44:00,
2013-09-04 22:49:00,70.2,69.3,30.15,SW,225,0.0,0.0,97,0.00,,BKN040,0.00,VWS V14.01,2013-09-05 02:49:00,
2013-09-04 22:54:00,70.0,69.1,30.15,SW,225,0.0,0.0,97,0.00,,BKN040,0.00,VWS V14.01,2013-09-05 02:54:00,
2013-09-04 22:59:00,70.2,69.3,30.15,SW,225,0.0,0.0,97,0.00,,BKN040,0.00,VWS V14.01,2013-09-05 02:59:00,
2013-09-04 23:04:00,70.0,69.1,30.15,SW,225,0.0,0.0,97,0.00,,SCT055,0.00,VWS V14.01,2013-09-05 03:04:00,
2013-09-04 23:09:00,70.0,69.1,30.15,SW,225,0.0,0.0,97,0.00,,SCT055,0.00,VWS V14.01,2013-09-05 03:09:00,
2013-09-04 23:14:00,70.0,69.1,30.15,SW,225,0.0,0.0,97,0.00,,SCT055,0.00,VWS V14.01,2013-09-05 03:14:00,
2013-09-04 23:20:00,69.8,68.9,30.15,SW,225,0.0,0.0,97,0.00,,SCT055,0.00,VWS V14.01,2013-09-05 03:20:00,
2013-09-04 23:25:00,69.8,68.9,30.15,SW,225,0.0,0.0,97,0.00,,BKN050,0.00,VWS V14.01,2013-09-05 03:25:00,
2013-09-04 23:30:00,69.8,68.9,30.15,SW,225,0.0,0.0,97,0.00,,BKN050,0.00,VWS V14.01,2013-09-05 03:30:00,
2013-09-04 23:35:00,69.6,68.7,30.15,SW,225,0.0,0.0,97,0.00,,BKN050,0.00,VWS V14.01,2013-09-05 03:35:00,
2013-09-04 23:40:00,69.8,68.9,30.15,SW,225,0.0,0.0,97,0.00,,BKN065,0.00,VWS V14.01,2013-09-05 03:40:00,
2013-09-04 23:45:00,69.8,68.9,30.15,SW,225,0.0,0.0,97,0.00,,BKN065,0.00,VWS V14.01,2013-09-05 03:45:00,
2013-09-04 23:50:00,69.6,68.7,30.15,SW,225,0.0,0.0,97,0.00,,BKN065,0.00,VWS V14.01,2013-09-05 03:50:00,
2013-09-04 23:55:00,69.6,68.7,30.15,SW,225,0.0,0.0,97,0.00,,BKN065,0.00,VWS V14.01,2013-09-05 03:55:00,